GW0605 Weather Reports


time (UTC)temp
F
wind
direction
speed
knots
gust
knots
rain 1hr
in
rain 24hr
in
rain mn
in
humidity
%
barometer
mb
20260506092017 54 14 5.2 13.9 0.00 0.00 0.00 71 1009.8
20260506091551 54 12 4.3 9.6 0.00 0.00 0.00 71 1009.7
20260506091017 54 17 5.2 12.2 0.00 0.00 0.00 72 1009.6
20260506090109 54 11 4.3 13.0 0.00 0.00 0.00 71 1009.6
20260506090017 55 20 4.3 13.0 0.00 0.00 0.00 71 1009.6
20260506085016 55 10 7.0 14.8 0.00 0.00 0.00 70 1009.6
20260506084603 55 25 6.1 14.8 0.00 0.00 0.00 70 1009.5
20260506084016 55 12 4.3 9.6 0.00 0.00 0.00 73 1009.5
20260506083052 54 33 3.5 13.9 0.00 0.00 0.00 73 1009.5
20260506083016 54 20 3.5 13.9 0.00 0.00 0.00 74 1009.5
20260506082016 54 1 4.3 10.4 0.00 0.00 0.00 74 1009.5
20260506081605 54 344 4.3 10.4 0.00 0.00 0.00 74 1009.5
20260506081016 54 19 3.5 7.8 0.00 0.00 0.00 75 1009.5
20260506073054 54 28 2.6 8.7 0.00 0.00 0.00 77 1009.3
20260506073016 54 25 2.6 8.7 0.00 0.00 0.00 78 1009.3
20260506072036 53 13 3.5 7.8 0.00 0.00 0.00 79 1009.3
20260506071552 53 27 2.6 9.6 0.00 0.00 0.00 78 1009.3
20260506071015 53 23 4.3 9.6 0.00 0.00 0.00 78 1009.3
20260506062036 52 6 3.5 9.6 0.00 0.00 0.00 81 1009.1
20260506061552 52 24 0.9 12.2 0.00 0.00 0.00 81 1009.0
20260506061016 52 19 4.3 12.2 0.00 0.00 0.00 81 1009.0
20260506051036 51 16 3.5 9.6 0.00 0.00 0.00 82 1008.9
20260506050114 50 5 3.5 7.8 0.00 0.00 0.00 81 1009.0
20260506045036 51 1 2.6 7.8 0.00 0.00 0.00 81 1009.1
20260506044552 50 5 1.7 7.8 0.00 0.00 0.00 81 1009.0
20260506044016 51 356 2.6 6.1 0.00 0.00 0.00 81 1009.0
20260506043054 50 344 1.7 5.2 0.00 0.00 0.00 81 1009.1
20260506043016 50 18 2.6 5.2 0.00 0.00 0.00 81 1009.1
20260506042016 50 360 1.7 4.3 0.00 0.00 0.00 82 1009.0
20260506041604 50 355 1.7 7.8 0.00 0.00 0.00 81 1009.0
20260506041016 50 19 1.7 7.8 0.00 0.00 0.00 82 1009.1
20260506040052 50 5 1.7 7.0 0.00 0.00 0.00 82 1009.1
20260506040016 50 11 1.7 7.0 0.00 0.00 0.00 82 1009.1
20260506035016 50 8 3.5 7.8 0.00 0.00 0.00 83 1009.1
20260506034554 50 17 2.6 7.0 0.00 0.00 0.00 82 1009.1
20260506034016 50 357 3.5 7.0 0.00 0.00 0.00 82 1009.1
20260506033047 50 29 2.6 8.7 0.00 0.00 0.00 82 1009.1
20260506033016 50 4 2.6 7.8 0.00 0.00 0.00 82 1009.2
20260506032015 50 4 3.5 8.7 0.00 0.00 0.00 82 1009.2
20260506031548 50 13 1.7 7.0 0.00 0.00 0.00 82 1009.2
20260506031016 50 19 3.5 8.7 0.00 0.00 0.00 82 1009.3
20260506030057 50 17 1.7 7.0 0.00 0.00 0.00 82 1009.4
20260506030016 50 12 1.7 7.0 0.00 0.00 0.00 82 1009.4
20260506025035 50 3 1.7 7.0 0.00 0.00 0.00 82 1009.4
20260506024603 50 342 2.6 7.8 0.00 0.00 0.00 81 1009.4
20260506024016 50 7 3.5 7.8 0.00 0.00 0.00 82 1009.4
20260506023108 50 26 2.6 9.6 0.00 0.00 0.00 82 1009.4
20260506023016 50 4 2.6 9.6 0.00 0.00 0.00 82 1009.5
20260506022016 50 17 3.5 7.0 0.00 0.00 0.00 82 1009.5
20260506021548 50 23 2.6 6.1 0.00 0.00 0.00 82 1009.5
20260506021016 50 15 2.6 6.1 0.00 0.00 0.00 83 1009.6
20260506020055 49 15 1.7 7.8 0.00 0.00 0.00 82 1009.6
20260506020016 50 19 1.7 7.8 0.00 0.00 0.00 83 1009.6
20260506015016 50 19 0.9 4.3 0.00 0.00 0.00 82 1009.7
20260506014553 49 18 0.0 3.5 0.00 0.00 0.00 82 1009.7
20260506014016 49 19 0.9 6.1 0.00 0.00 0.00 83 1009.7
20260506013056 49 0 0.9 3.5 0.00 0.00 0.00 82 1009.7
20260506013015 49 22 0.9 2.6 0.00 0.00 0.00 83 1009.8
20260506012016 49 22 0.9 3.5 0.00 0.00 0.00 83 1009.8
20260506011550 48 0 0.0 4.3 0.00 0.00 0.00 82 1009.7
20260506011016 49 24 0.9 4.3 0.00 0.00 0.00 83 1009.8
20260506010050 48 24 0.9 3.5 0.00 0.00 0.00 82 1009.7
20260506010016 48 25 1.7 3.5 0.00 0.00 0.00 83 1009.8
20260506005016 48 25 0.9 2.6 0.00 0.00 0.00 82 1009.9
20260506004546 48 0 0.0 2.6 0.00 0.00 0.00 81 1009.9
20260506004016 48 25 0.0 2.6 0.00 0.00 0.00 82 1010.1
20260506003054 48 0 0.0 2.6 0.00 0.00 0.00 81 1010.1
20260506003016 48 25 0.0 2.6 0.00 0.00 0.00 82 1010.2
20260506002016 48 25 0.0 2.6 0.00 0.00 0.00 82 1010.2
20260506001557 48 0 0.0 4.3 0.00 0.00 0.00 81 1010.1
20260506001016 48 25 0.9 4.3 0.00 0.00 0.00 82 1010.3
20260506000100 48 25 0.0 3.5 0.00 0.00 0.00 81 1010.3
20260506000016 48 25 0.9 3.5 0.00 0.00 0.00 82 1010.4
20260505235016 48 24 0.9 4.3 0.00 0.00 0.00 82 1010.5
20260505234552 48 24 0.9 4.3 0.00 0.00 0.00 82 1010.3
20260505234036 48 27 0.9 2.6 0.00 0.00 0.00 82 1010.6
20260505233054 48 0 0.0 4.3 0.00 0.00 0.00 82 1010.6
20260505233016 48 27 0.9 3.5 0.00 0.00 0.00 82 1010.6
20260505232016 48 27 0.9 4.3 0.00 0.00 0.00 82 1010.7
20260505231549 48 27 0.0 3.5 0.00 0.00 0.00 82 1010.6
20260505231016 48 27 0.9 4.3 0.00 0.00 0.00 82 1010.6
20260505230120 48 0 0.0 3.5 0.00 0.00 0.00 81 1010.6
20260505230016 49 28 0.9 3.5 0.00 0.00 0.00 81 1010.6
20260505225036 49 35 1.7 7.8 0.00 0.00 0.00 80 1010.7
20260505224552 48 45 2.6 7.8 0.00 0.00 0.00 80 1010.6
20260505224015 49 25 2.6 4.3 0.00 0.00 0.00 79 1010.7
20260505223053 49 23 1.7 7.0 0.00 0.00 0.00 78 1010.7
20260505223016 50 22 2.6 7.0 0.00 0.00 0.00 78 1010.8
20260505222016 50 12 2.6 7.0 0.00 0.00 0.00 78 1010.8
20260505221557 49 355 0.9 5.2 0.00 0.00 0.00 77 1010.8
20260505221016 50 27 1.7 5.2 0.00 0.00 0.00 78 1011.0
20260505220104 49 32 1.7 5.2 0.00 0.00 0.00 77 1011.0
20260505220016 49 38 1.7 5.2 0.00 0.00 0.00 78 1011.1
20260505215035 49 21 0.9 3.5 0.00 0.00 0.00 79 1011.1
20260505214551 48 21 0.9 4.3 0.00 0.00 0.00 78 1011.1
20260505214016 49 20 1.7 3.5 0.00 0.00 0.00 78 1011.2
20260505213052 48 0 0.9 3.5 0.00 0.00 0.00 78 1011.2
20260505213015 49 18 1.7 3.5 0.00 0.00 0.00 78 1011.3
20260505212015 49 17 0.9 4.3 0.00 0.00 0.00 78 1011.3
20260505211602 48 17 0.9 6.1 0.00 0.00 0.00 78 1011.3
20260505211016 49 17 1.7 6.1 0.00 0.00 0.00 78 1011.3
20260505210056 49 15 0.9 7.0 0.00 0.00 0.00 77 1011.2
20260505210015 49 23 1.7 6.1 0.00 0.00 0.00 77 1011.3
20260505205015 49 21 3.5 7.0 0.00 0.00 0.00 77 1011.3
20260505204555 49 26 1.7 7.0 0.00 0.00 0.00 76 1011.3
20260505204015 50 29 2.6 6.1 0.00 0.00 0.00 76 1011.3
20260505203051 49 0 1.7 7.8 0.00 0.00 0.00 75 1011.2
20260505203016 50 6 2.6 7.8 0.00 0.00 0.00 76 1011.2
20260505202015 50 17 2.6 7.0 0.00 0.00 0.00 76 1011.2
20260505201551 49 5 1.7 7.0 0.00 0.00 0.00 75 1011.2
20260505201035 50 7 2.6 7.0 0.00 0.00 0.00 75 1011.1
20260505200109 50 5 1.7 6.1 0.00 0.00 0.00 75 1011.1
20260505200016 50 5 2.6 6.1 0.00 0.00 0.00 75 1011.1
20260505195018 50 20 2.6 7.0 0.00 0.00 0.00 74 1011.0
20260505194556 50 19 1.7 7.0 0.00 0.00 0.00 73 1011.0
20260505194018 50 13 2.6 6.1 0.00 0.00 0.00 73 1011.0
20260505193104 50 30 2.6 7.8 0.00 0.00 0.00 72 1011.0
20260505193018 50 27 2.6 7.8 0.00 0.00 0.00 72 1011.0
20260505192018 51 21 3.5 8.7 0.00 0.00 0.00 72 1011.0
20260505191602 50 20 2.6 8.7 0.00 0.00 0.00 71 1011.0
20260505191018 51 28 2.6 11.3 0.00 0.00 0.00 72 1011.0
20260505190056 51 5 4.3 10.4 0.00 0.00 0.00 71 1011.0
20260505190016 51 14 5.2 10.4 0.00 0.00 0.00 72 1011.0
20260505185038 52 19 3.5 8.7 0.00 0.00 0.00 72 1010.9
20260505184557 51 16 3.5 11.3 0.00 0.00 0.00 72 1010.8
20260505184018 52 9 4.3 11.3 0.00 0.00 0.00 71 1010.8
20260505183056 52 14 5.2 10.4 0.00 0.00 0.00 70 1010.7
20260505183018 52 17 4.3 10.4 0.00 0.00 0.00 72 1010.8
20260505182018 52 15 5.2 10.4 0.00 0.00 0.00 72 1010.7
20260505181558 52 328 4.3 10.4 0.00 0.00 0.00 72 1010.7
20260505181018 52 5 3.5 8.7 0.00 0.00 0.00 71 1010.8
20260505180054 52 12 4.3 9.6 0.00 0.00 0.00 70 1010.8
20260505180018 53 8 4.3 9.6 0.00 0.00 0.00 70 1010.8
20260505175018 53 16 4.3 9.6 0.00 0.00 0.00 69 1010.8
20260505174602 53 35 2.6 10.4 0.00 0.00 0.00 69 1010.7
20260505174038 53 10 6.1 11.3 0.00 0.00 0.00 70 1010.8
20260505173057 53 13 4.3 10.4 0.00 0.00 0.00 68 1010.7
20260505173018 54 7 4.3 10.4 0.00 0.00 0.00 69 1010.8
20260505172018 54 14 5.2 11.3 0.00 0.00 0.00 69 1010.8
20260505171552 53 349 3.5 13.0 0.00 0.00 0.00 69 1010.8
20260505171018 54 3 5.2 13.0 0.00 0.00 0.00 69 1010.8
20260505170054 54 5 3.5 13.0 0.00 0.00 0.00 69 1010.8
20260505170016 54 12 4.3 9.6 0.00 0.00 0.00 69 1010.8
20260505165017 55 14 5.2 13.9 0.00 0.00 0.00 69 1010.8
20260505164551 54 355 5.2 13.0 0.00 0.00 0.00 68 1010.8
20260505164018 55 20 5.2 11.3 0.00 0.00 0.00 68 1010.9
20260505163051 54 341 4.3 11.3 0.00 0.00 0.00 68 1010.8
20260505163017 55 350 4.3 9.6 0.00 0.00 0.00 69 1010.9
20260505162018 55 16 6.1 15.6 0.00 0.00 0.00 69 1010.8
20260505161548 55 22 6.1 15.6 0.00 0.00 0.00 68 1010.8
20260505161017 55 9 4.3 12.2 0.00 0.00 0.00 67 1010.8
20260505153053 56 328 5.2 13.0 0.00 0.00 0.00 64 1010.9
20260505153018 56 15 5.2 13.0 0.00 0.00 0.00 65 1010.9
20260505152016 56 25 5.2 13.0 0.00 0.00 0.00 64 1010.9
20260505151549 56 17 6.1 13.0 0.00 0.00 0.00 63 1010.8
20260505151017 57 358 5.2 12.2 0.00 0.00 0.00 64 1011.0
20260505130106 57 5 1.7 12.2 0.00 0.00 0.00 64 1011.5
20260505125017 57 37 3.5 10.4 0.00 0.00 0.00 64 1011.5
20260505124553 56 11 4.3 12.2 0.00 0.00 0.00 64 1011.4
20260505124017 57 16 4.3 12.2 0.00 0.00 0.00 65 1011.5
20260505123055 56 36 4.3 11.3 0.00 0.00 0.00 66 1011.5
20260505123017 56 33 5.2 10.4 0.00 0.00 0.00 66 1011.5
20260505122017 56 23 4.3 11.3 0.00 0.00 0.00 66 1011.6
20260505121553 56 12 4.3 11.3 0.00 0.00 0.00 65 1011.6
20260505121016 56 18 4.3 10.4 0.00 0.00 0.00 66 1011.6
20260505120017 56 29 5.2 12.2 0.00 0.00 0.00 66 1011.6
20260505115016 56 18 4.3 12.2 0.00 0.00 0.00 66 1011.7
20260505114552 55 21 2.6 12.2 0.00 0.00 0.00 66 1011.6
20260505114017 56 16 4.3 12.2 0.00 0.00 0.00 66 1011.8
20260505113100 55 14 3.5 9.6 0.00 0.00 0.00 67 1011.8
20260505113017 55 7 4.3 8.7 0.00 0.00 0.00 67 1012.0
20260505112016 55 16 4.3 9.6 0.00 0.00 0.00 66 1012.1
20260505111553 55 30 3.5 11.3 0.00 0.00 0.00 66 1012.0
20260505111037 55 29 4.3 11.3 0.00 0.00 0.00 68 1012.0
20260505102017 55 43 4.3 9.6 0.00 0.00 0.00 67 1012.3
20260505101558 55 38 4.3 9.6 0.00 0.00 0.00 66 1012.3
20260505101017 55 17 3.5 12.2 0.00 0.00 0.00 67 1012.3
20260505100051 54 113 2.6 11.3 0.00 0.00 0.00 68 1012.2
20260505100016 54 19 3.5 11.3 0.00 0.00 0.00 68 1012.3
20260505095017 54 29 3.5 9.6 0.00 0.00 0.00 68 1012.2
20260505094625 54 31 3.5 10.4 0.00 0.00 0.00 68 1012.1
20260505094016 54 26 4.3 10.4 0.00 0.00 0.00 68 1012.0
20260505093057 54 21 5.2 13.0 0.00 0.00 0.00 68 1011.9